Regional Weather Roundup
Issued by NWS Newport/Morehead, NC

Home | Current Version | Previous Version | Text Only | Print | Product List | Glossary On
Versions: 1 2 3 4 5 6 7 8 9 10 11 12 13 14 15 16 17 18 19 20 21 22 23 24 25 26 27 28 29 30 31 32 33 34 35 36 37 38 39 40 41 42 43 44 45 46 47 48 49 50
000
ASUS42 KMHX 301325
RWRMHX
WEATHER ROUNDUP FOR EASTERN NORTH CAROLINA
NATIONAL WEATHER SERVICE NEWPORT/MOREHEAD CITY NC
900 AM EDT SAT MAY 30 2015

NOTE: "FAIR" INDICATES FEW OR NO CLOUDS BELOW 12,000 FEET
WITH NO SIGNIFICANT WEATHER AND/OR OBSTRUCTIONS TO VISIBILITY

NCZ015>017-031-032-045>047-102-103-301400-
NORTH COAST

CITY           SKY/WX    TMP DP  RH WIND       PRES   REMARKS
EDENTON        SUNNY     77  67  72 S5        30.25S
ELIZABETH CITY MOSUNNY   77  67  71 S3        30.25R
KITTY HAWK     PTSUNNY   76  67  72 SE3       30.24R
MANTEO         MOSUNNY   75  65  71 W3        30.25R

$$

NCZ045>047-081-094-103-104-301400-
CENTRAL COAST

CITY           SKY/WX    TMP DP  RH WIND       PRES   REMARKS
FRISCO         SUNNY     76  63  64 E5        30.24S
SWANQUARTER      N/A     79 N/A N/A E1        30.21S

$$

NCZ095-097-098-100-101-301400-
SOUTHERN COAST

CITY           SKY/WX    TMP DP  RH WIND       PRES   REMARKS
BEAUFORT       SUNNY     78  67  68 NE6       30.23S
CEDAR ISLAND     N/A     77 N/A N/A NE7       30.27S
JACKSONVILLE   SUNNY     77  67  71 E7        30.23R
PINEY ISLAND   SUNNY    N/A N/A N/A E7        30.23S
WILMINGTON     MOSUNNY   77  69  76 NE6       30.22R


$$

NCZ011>013-027>030-043-044-078>080-089-090>093-098-301400-
COASTAL PLAIN

CITY           SKY/WX    TMP DP  RH WIND       PRES   REMARKS
AHOSKIE        SUNNY     75  67  75 S5        30.24F
CLINTON        MOSUNNY   78  69  73 CALM      30.24S
ELIZABETHTOWN  SUNNY     75  68  77 E3        30.23S
GOLDSBORO      MOSUNNY   77  69  77 CALM      30.22R
GREENVILLE     SUNNY     77  68  73 SE5       30.25S
HAVELOCK       SUNNY     78  66  66 E6        30.24S
KENANSVILLE    MOSUNNY   76  66  69 CALM      30.25S
KINSTON        SUNNY     77  68  73 E3        30.25S
NEW BERN       SUNNY     77  66  68 E3        30.25R
RICHLANDS      SUNNY     79  64  61 E6        30.24S
ROCKY MOUNT    SUNNY     76  69  79 CALM      30.25R
WASHINGTON     SUNNY     76  65  68 S6        30.25S
WHITEVILLE     MOSUNNY   76  68  77 CALM      30.22S

$$

AMZ130-135-150-152-154-156-158-170-250-252-270-ANZ085-086-088-633-658-670-301400-
MARINE OBSERVATIONS

STATION/POSITION TIME  TEMP    WIND        PRES    WAVE   SWELL
                       AIR SEA DIR/SP/G            HT/PER HT/PER
                 (UTC) (F)     (DEG/KT/KT) (MB)    (FT/S) (FT/S)
CHESAPEAKE LIGHT 1300   71     180/  6/  6 1025.1
64 E VA BEACH    1250   70 66   80/  4/  4 1024.1    4/ 8   3/ 8
DUCK             1300   74 56  140/  3/  4 1023.2
2 E DUCK         1211      64                N/A     3/ 9
OREGON INLET     1300   76 76  170/  6/  7 1024.1
13E OREGON INLT  1300      75                N/A     4/ 9   2/11
HATTERAS CG      1300   77 77  120/  3/  6 1023.6
DIAMOND BUOY     1250   76 79  100/  4/  8 1023.9    4/ 9   3/ 9
CAPE LOOKOUT     1300   76      70/  4/  5 1023.4
BEAUFORT LAB     1300   77 76   90/  7/  8 1022.9
27 SE WRIGHTSVLE 1300      76   CALM  /  2   N/A
5 SE WRIGHTSVLE  1208   76 77  190/  4/  8 1023.1
225 S CAPE HAT   1250   75 74   70/ 12/ 14 1021.6    6/ 9   7/ 9
41 SE CHARLESTON 1250   78 79   90/ 12/ 14 1021.4    5/ 6   3/ 6

$$



USA.gov is the U.S. government's official web portal to all federal, state and local government web resources and services.